9W2XPF-13 Weather Reports


time (UTC)temp
C
wind
direction
speed
KPH
gust
KPH
rain 1hr
cm
rain 24hr
cm
rain mn
cm
humidity
%
barometer
mb
20260504160401 24 315 1.6 3.2 0.00 0.18 0.00 98 1010.0
20260504160200 24 315 0.0 3.2 0.00 0.18 0.00 99 1010.1
20260504151001 24 315 1.6 3.2 0.00 0.18 0.18 98 1009.5
20260504150801 24 315 0.0 3.2 0.00 0.18 0.18 98 1009.7
20260504150601 24 315 0.0 3.2 0.00 0.18 0.18 98 1009.6
20260504150401 24 315 3.2 3.2 0.00 0.18 0.18 98 1009.5
20260504150201 24 315 1.6 3.2 0.00 0.18 0.18 98 1009.7
20260504141201 25 292 3.2 3.2 0.00 0.18 0.18 97 1009.5
20260504141001 25 292 1.6 3.2 0.00 0.18 0.18 97 1009.4
20260504140801 25 292 0.0 3.2 0.00 0.18 0.18 97 1009.2
20260504140602 25 292 0.0 3.2 0.00 0.18 0.18 97 1009.3
20260504140402 25 292 0.0 3.2 0.00 0.18 0.18 97 1009.2
20260504140201 25 292 0.0 3.2 0.00 0.18 0.18 97 1009.2
20260504130801 25 292 0.0 3.2 0.00 0.18 0.18 96 1008.8
20260504130601 25 292 0.0 3.2 0.00 0.18 0.18 96 1008.5
20260504130401 25 292 0.0 3.2 0.00 0.18 0.18 96 1008.6
20260504130202 25 292 0.0 3.2 0.00 0.18 0.18 96 1008.5
20260504120201 25 292 0.0 3.2 0.00 0.18 0.18 96 1007.8
20260504110602 26 292 3.2 3.2 0.00 0.18 0.18 92 1007.7
20260504110401 26 289 1.6 3.2 0.00 0.18 0.18 92 1007.6
20260504110201 26 280 0.0 3.2 0.00 0.18 0.18 92 1007.6
20260504100601 27 263 0.0 3.2 0.00 0.18 0.18 86 1007.2
20260504100401 27 260 0.0 3.2 0.00 0.18 0.18 87 1007.1
20260504100202 27 255 1.6 3.2 0.00 0.18 0.18 86 1007.2
20260504082002 26 299 1.6 12.9 0.00 0.18 0.18 89 1007.3
20260504081802 26 307 3.2 12.9 0.00 0.18 0.18 89 1007.2
20260504081602 26 305 1.6 17.7 0.00 0.18 0.18 89 1007.2
20260504081402 26 299 3.2 17.7 0.00 0.18 0.18 89 1007.2
20260504081202 26 297 6.4 17.7 0.00 0.18 0.18 88 1007.1
20260504081002 26 297 6.4 17.7 0.00 0.18 0.18 88 1007.3
20260504080802 27 297 8.0 17.7 0.00 0.18 0.18 88 1007.0
20260504080602 27 303 11.3 17.7 0.00 0.18 0.18 88 1007.2
20260504080402 27 320 11.3 17.7 0.00 0.18 0.18 87 1007.3
20260504080201 27 339 4.8 12.9 0.00 0.18 0.18 88 1007.3
20260504070402 27 90 0.0 9.7 0.13 0.18 0.18 94 1008.0
20260504070202 27 86 4.8 9.7 0.13 0.18 0.18 94 1007.9
20260504060202 26 129 17.7 29.0 0.05 0.05 0.05 93 1008.8
20260504050602 33 256 3.2 11.3 0.00 0.00 0.00 60 1009.5
20260504050402 34 274 6.4 11.3 0.00 0.00 0.00 60 1009.6
20260504050202 33 311 6.4 9.7 0.00 0.00 0.00 60 1009.5
20260504050002 33 324 1.6 11.3 0.00 0.00 0.00 61 1009.6
20260504045802 33 295 3.2 11.3 0.00 0.00 0.00 61 1009.5
20260504045602 33 288 3.2 11.3 0.00 0.00 0.00 61 1009.6
20260504045402 33 285 3.2 11.3 0.00 0.00 0.00 61 1009.5
20260504045202 33 281 3.2 11.3 0.00 0.00 0.00 61 1009.6
20260504045002 33 279 3.2 6.4 0.00 0.00 0.00 62 1009.6
20260504044802 32 294 1.6 6.4 0.00 0.00 0.00 64 1009.8
20260504044602 32 302 0.0 6.4 0.00 0.00 0.00 65 1009.8
20260504044402 32 307 3.2 6.4 0.00 0.00 0.00 65 1009.9
20260504044203 32 318 3.2 6.4 0.00 0.00 0.00 66 1009.8
20260504044002 32 325 6.4 6.4 0.00 0.00 0.00 66 1009.9
20260504043802 32 320 4.8 9.7 0.00 0.00 0.00 65 1009.9
20260504043602 32 315 3.2 9.7 0.00 0.00 0.00 66 1009.9
20260504043402 32 303 3.2 12.9 0.00 0.00 0.00 66 1009.7
20260504043202 32 300 3.2 12.9 0.00 0.00 0.00 66 1009.8
20260504043002 33 304 6.4 12.9 0.00 0.00 0.00 64 1009.9
20260504042802 33 308 6.4 12.9 0.00 0.00 0.00 65 1010.0
20260504042602 33 303 6.4 12.9 0.00 0.00 0.00 63 1010.0
20260504042402 33 312 3.2 9.7 0.00 0.00 0.00 61 1010.1
20260504042202 33 315 3.2 9.7 0.00 0.00 0.00 60 1009.8
20260504042002 33 301 4.8 9.7 0.00 0.00 0.00 60 1009.9
20260504041802 33 285 1.6 6.4 0.00 0.00 0.00 62 1010.0
20260504041602 33 290 1.6 6.4 0.00 0.00 0.00 63 1010.0
20260504041402 33 275 3.2 6.4 0.00 0.00 0.00 63 1010.0
20260504041202 33 257 4.8 6.4 0.00 0.00 0.00 64 1010.1
20260504041002 33 255 3.2 6.4 0.00 0.00 0.00 65 1010.0
20260504040802 33 260 3.2 9.7 0.00 0.00 0.00 64 1010.1
20260504040602 33 257 4.8 9.7 0.00 0.00 0.00 63 1010.1
20260504040402 32 265 3.2 9.7 0.00 0.00 0.00 64 1010.3
20260504040202 32 275 3.2 9.7 0.00 0.00 0.00 67 1010.2
20260504040002 32 280 1.6 9.7 0.00 0.00 0.00 68 1010.2
20260504035802 32 278 6.4 6.4 0.00 0.00 0.00 67 1010.3
20260504035602 32 272 3.2 6.4 0.00 0.00 0.00 67 1010.1
20260504035402 32 258 1.6 6.4 0.00 0.00 0.00 66 1010.3
20260504035202 32 251 4.8 6.4 0.00 0.00 0.00 66 1010.3
20260504035002 32 252 3.2 6.4 0.00 0.00 0.00 68 1010.5
20260504034802 32 263 3.2 6.4 0.00 0.00 0.00 68 1010.4
20260504034602 32 282 1.6 9.7 0.00 0.00 0.00 67 1010.3
20260504034402 32 287 3.2 9.7 0.00 0.00 0.00 67 1010.3
20260504034202 32 294 3.2 9.7 0.00 0.00 0.00 68 1010.3
20260504034002 32 296 3.2 9.7 0.00 0.00 0.00 68 1010.3
20260504033802 32 288 3.2 9.7 0.00 0.00 0.00 67 1010.2
20260504033602 32 281 4.8 9.7 0.00 0.00 0.00 67 1010.2
20260504033402 32 276 6.4 9.7 0.00 0.00 0.00 66 1010.3
20260504033202 32 259 3.2 9.7 0.00 0.00 0.00 67 1010.3
20260504033002 32 270 3.2 6.4 0.00 0.00 0.00 67 1010.3
20260504032802 32 330 3.2 6.4 0.00 0.00 0.00 68 1010.3
20260504032602 32 2 3.2 6.4 0.00 0.00 0.00 68 1010.4
20260504032402 32 9 1.6 6.4 0.00 0.00 0.00 69 1010.4
20260504032202 31 342 1.6 6.4 0.00 0.00 0.00 70 1010.3
20260504032002 31 327 0.0 6.4 0.00 0.00 0.00 71 1010.4
20260504031802 31 315 3.2 6.4 0.00 0.00 0.00 71 1010.3
20260504031602 31 312 3.2 9.7 0.00 0.00 0.00 71 1010.5
20260504031402 31 301 1.6 9.7 0.00 0.00 0.00 71 1010.5
20260504031202 31 293 4.8 9.7 0.00 0.00 0.00 71 1010.6
20260504031003 31 279 4.8 9.7 0.00 0.00 0.00 70 1010.5
20260504030802 31 282 3.2 9.7 0.00 0.00 0.00 70 1010.5
20260504030602 32 272 1.6 9.7 0.00 0.00 0.00 70 1010.5
20260504030402 32 277 3.2 11.3 0.00 0.00 0.00 70 1010.8
20260504030202 32 283 3.2 11.3 0.00 0.00 0.00 70 1010.5
20260504030002 32 295 4.8 11.3 0.00 0.00 0.00 70 1010.6
20260504025802 32 302 6.4 11.3 0.00 0.00 0.00 71 1010.6
20260504025602 32 326 4.8 11.3 0.00 0.00 0.00 70 1010.6
20260504025402 32 355 3.2 6.4 0.00 0.00 0.00 69 1010.7
20260504025202 32 353 1.6 6.4 0.00 0.00 0.00 69 1010.6
20260504025002 32 340 1.6 6.4 0.00 0.00 0.00 70 1010.6
20260504024802 31 317 0.0 6.4 0.00 0.00 0.00 71 1010.6
20260504024602 31 311 3.2 6.4 0.00 0.00 0.00 72 1010.7
20260504024402 31 311 1.6 6.4 0.00 0.00 0.00 72 1010.6
20260504024202 32 318 4.8 6.4 0.00 0.00 0.00 71 1010.5
20260504024003 32 309 3.2 6.4 0.00 0.00 0.00 71 1010.6
20260504023802 32 330 3.2 6.4 0.00 0.00 0.00 69 1010.6
20260504023602 32 352 3.2 6.4 0.00 0.00 0.00 69 1010.7
20260504023403 32 14 1.6 6.4 0.00 0.00 0.00 71 1010.6
20260504023202 32 33 3.2 6.4 0.00 0.00 0.00 69 1010.5
20260504023003 32 73 1.6 6.4 0.00 0.00 0.00 71 1010.5
20260504022802 32 89 3.2 6.4 0.00 0.00 0.00 71 1010.6
20260504022603 32 103 3.2 6.4 0.00 0.00 0.00 72 1010.4
20260504022402 31 107 1.6 6.4 0.00 0.00 0.00 73 1010.6
20260504022202 31 112 3.2 6.4 0.00 0.00 0.00 74 1010.8
20260504022002 31 148 4.8 6.4 0.00 0.00 0.00 73 1010.8
20260504021803 31 233 3.2 6.4 0.00 0.00 0.00 73 1010.7
20260504021602 31 235 3.2 6.4 0.00 0.00 0.00 74 1010.8
20260504021402 31 235 0.0 6.4 0.00 0.00 0.00 74 1010.8
20260504021203 31 241 1.6 6.4 0.00 0.00 0.00 75 1010.8
20260504021003 31 259 3.2 6.4 0.00 0.00 0.00 75 1010.6
20260504020802 30 255 3.2 6.4 0.00 0.00 0.00 76 1010.7
20260504020603 30 265 1.6 6.4 0.00 0.00 0.00 76 1010.6
20260504020403 30 266 3.2 6.4 0.00 0.00 0.00 76 1010.5
20260504020203 31 274 3.2 6.4 0.00 0.00 0.00 76 1010.6
20260504020003 31 265 3.2 6.4 0.00 0.00 0.00 76 1010.5
20260504015803 30 266 3.2 6.4 0.00 0.00 0.00 76 1010.4
20260504015602 30 268 1.6 6.4 0.00 0.00 0.00 77 1010.4
20260504015403 30 271 3.2 6.4 0.00 0.00 0.00 77 1010.5
20260504015202 30 265 3.2 6.4 0.00 0.00 0.00 78 1010.6
20260504015003 30 272 1.6 6.4 0.00 0.00 0.00 78 1010.5
20260504014803 30 273 3.2 6.4 0.00 0.00 0.00 79 1010.5
20260504014603 30 281 1.6 9.7 0.00 0.00 0.00 79 1010.7
20260504014403 30 286 1.6 9.7 0.00 0.00 0.00 80 1010.4
20260504014203 30 285 4.8 9.7 0.00 0.00 0.00 80 1010.6
20260504014003 30 288 4.8 9.7 0.00 0.00 0.00 80 1010.7
20260504013803 30 293 4.8 9.7 0.00 0.00 0.00 80 1010.6
20260504013602 30 282 3.2 6.4 0.00 0.00 0.00 80 1010.7
20260504013403 30 280 3.2 6.4 0.00 0.00 0.00 80 1010.6
20260504013203 29 285 3.2 6.4 0.00 0.00 0.00 81 1010.6
20260504013003 29 279 1.6 6.4 0.00 0.00 0.00 82 1010.5
20260504012803 29 286 1.6 6.4 0.00 0.00 0.00 82 1010.4
20260504012603 29 293 0.0 6.4 0.00 0.00 0.00 83 1010.4
20260504012403 29 295 3.2 6.4 0.00 0.00 0.00 84 1010.6
20260504012203 28 299 1.6 6.4 0.00 0.00 0.00 85 1010.5
20260504012003 28 317 3.2 6.4 0.00 0.00 0.00 86 1010.3
20260504011803 28 324 3.2 3.2 0.00 0.00 0.00 87 1010.4
20260504011603 28 332 1.6 6.4 0.00 0.00 0.00 89 1010.3
20260504011403 28 336 1.6 6.4 0.00 0.00 0.00 90 1010.4
20260504011203 28 340 1.6 6.4 0.00 0.00 0.00 90 1010.3
20260504011003 27 340 3.2 6.4 0.00 0.00 0.00 91 1010.3
20260504010802 27 337 1.6 6.4 0.00 0.00 0.00 92 1010.2
20260504010603 27 333 1.6 6.4 0.00 0.00 0.00 92 1010.1
20260504010403 27 334 3.2 6.4 0.00 0.00 0.00 92 1010.2
20260504010203 27 336 3.2 6.4 0.00 0.00 0.00 93 1010.0
20260504010002 27 340 3.2 3.2 0.00 0.00 0.00 93 1010.0
20260504005803 27 342 1.6 3.2 0.00 0.00 0.00 94 1010.0
20260504005603 27 347 3.2 3.2 0.00 0.00 0.00 94 1010.0
20260504005403 27 355 3.2 3.2 0.00 0.00 0.00 94 1009.8
20260504005203 27 360 0.0 3.2 0.00 0.00 0.00 95 1009.9
20260504005003 27 344 3.2 3.2 0.00 0.00 0.00 95 1009.9
20260504004803 27 341 1.6 3.2 0.00 0.00 0.00 95 1009.7
20260504004603 27 310 3.2 3.2 0.00 0.00 0.00 96 1009.9
20260504004403 27 287 1.6 3.2 0.00 0.00 0.00 96 1009.6
20260504004203 27 270 1.6 3.2 0.00 0.00 0.00 96 1009.8
20260504004002 27 270 0.0 3.2 0.00 0.00 0.00 97 1009.6
20260504003803 26 270 3.2 3.2 0.00 0.00 0.00 97 1009.8
20260504003603 26 270 1.6 3.2 0.00 0.00 0.00 97 1009.8
20260504003403 26 270 0.0 3.2 0.00 0.00 0.00 97 1009.7
20260504003203 26 270 0.0 3.2 0.00 0.00 0.00 98 1009.8
20260504003003 26 270 0.0 3.2 0.00 0.00 0.00 98 1009.8
20260504002803 26 270 1.6 3.2 0.00 0.00 0.00 98 1009.7
20260504002603 26 270 1.6 3.2 0.00 0.00 0.00 98 1009.7
20260504002403 26 270 0.0 3.2 0.00 0.00 0.00 99 1009.7
20260504002203 26 270 0.0 3.2 0.00 0.00 0.00 99 1009.4
20260504002003 26 270 0.0 3.2 0.00 0.00 0.00 99 1009.5
20260504001803 25 270 0.0 3.2 0.00 0.00 0.00 99 1009.4
20260504001602 25 270 0.0 3.2 0.00 0.00 0.00 99 1009.3
20260504001402 25 270 0.0 3.2 0.00 0.00 0.00 99 1009.1
20260504001203 25 270 1.6 3.2 0.00 0.00 0.00 99 1009.4
20260504001003 25 270 1.6 3.2 0.00 0.00 0.00 99 1009.2
20260504000803 25 270 3.2 3.2 0.00 0.00 0.00 99 1009.3
20260504000603 25 270 3.2 3.2 0.00 0.00 0.00 99 1009.2
20260504000402 25 270 1.6 3.2 0.00 0.00 0.00 99 1009.4
20260504000204 25 270 1.6 3.2 0.00 0.00 0.00 99 1009.1
20260504000003 25 270 0.0 3.2 0.00 0.00 0.00 99 1009.4
20260503235803 25 270 0.0 3.2 0.00 0.00 0.00 99 1009.2
20260503235603 25 270 0.0 3.2 0.00 0.00 0.00 99 1009.1
20260503235403 24 270 1.6 3.2 0.00 0.00 0.00 99 1009.2
20260503235203 24 270 0.0 3.2 0.00 0.00 0.00 99 1009.0
20260503235003 24 270 3.2 3.2 0.00 0.00 0.00 99 1009.1
20260503234802 24 270 1.6 3.2 0.00 0.00 0.00 99 1009.2
20260503234603 24 270 0.0 3.2 0.00 0.00 0.00 99 1009.2
20260503234403 24 270 1.6 3.2 0.00 0.00 0.00 99 1009.1
20260503234203 24 270 1.6 3.2 0.00 0.00 0.00 99 1009.2
20260503234003 24 270 1.6 3.2 0.00 0.00 0.00 99 1009.1
20260503233803 24 270 1.6 3.2 0.00 0.00 0.00 99 1008.9
20260503233603 24 270 1.6 3.2 0.00 0.00 0.00 99 1009.1
20260503233403 24 270 0.0 3.2 0.00 0.00 0.00 99 1008.9
20260503233203 23 270 1.6 3.2 0.00 0.00 0.00 99 1009.1
20260503233003 23 270 1.6 3.2 0.00 0.00 0.00 99 1008.8
20260503232803 23 270 3.2 3.2 0.00 0.00 0.00 99 1008.8
20260503232603 23 270 0.0 3.2 0.00 0.00 0.00 99 1008.8
20260503232403 23 270 0.0 3.2 0.00 0.00 0.00 99 1008.8
20260503232203 23 270 0.0 3.2 0.00 0.00 0.00 99 1008.6
20260503232002 23 270 0.0 3.2 0.00 0.00 0.00 99 1008.7
20260503231803 23 270 0.0 3.2 0.00 0.00 0.00 99 1008.8
20260503231603 23 270 0.0 3.2 0.00 0.00 0.00 99 1008.7
20260503231403 23 270 0.0 3.2 0.00 0.00 0.00 99 1008.6
20260503231203 23 270 0.0 3.2 0.00 0.00 0.00 99 1008.7
20260503231003 23 270 1.6 3.2 0.00 0.00 0.00 99 1008.6
20260503230802 23 270 1.6 3.2 0.00 0.00 0.00 99 1008.8
20260503230603 23 270 3.2 3.2 0.00 0.00 0.00 99 1008.4
20260503230403 23 270 1.6 3.2 0.00 0.00 0.00 99 1008.7
20260503230203 23 270 3.2 3.2 0.00 0.00 0.00 99 1008.6
20260503230003 23 270 3.2 3.2 0.00 0.00 0.00 99 1008.6
20260503225803 23 270 1.6 3.2 0.00 0.00 0.00 99 1008.5
20260503225603 23 270 3.2 3.2 0.00 0.00 0.00 99 1008.4
20260503225402 23 270 1.6 3.2 0.00 0.00 0.00 99 1008.5
20260503225203 23 270 3.2 3.2 0.00 0.00 0.00 99 1008.6
20260503225004 23 270 0.0 3.2 0.00 0.00 0.00 99 1008.5
20260503224803 23 270 1.6 3.2 0.00 0.00 0.00 99 1008.5
20260503224603 23 270 1.6 3.2 0.00 0.00 0.00 99 1008.5
20260503224403 23 270 1.6 3.2 0.00 0.00 0.00 99 1008.5
20260503224203 23 270 1.6 3.2 0.00 0.00 0.00 99 1008.6
20260503224003 23 270 0.0 3.2 0.00 0.00 0.00 99 1008.4
20260503223803 23 270 0.0 3.2 0.00 0.00 0.00 99 1008.5
20260503223603 23 270 0.0 3.2 0.00 0.00 0.00 99 1008.5
20260503223403 23 270 3.2 3.2 0.00 0.00 0.00 99 1008.4
20260503223202 23 270 3.2 3.2 0.00 0.00 0.00 99 1008.5
20260503223003 23 270 3.2 3.2 0.00 0.00 0.00 99 1008.4
20260503222803 23 270 3.2 3.2 0.00 0.00 0.00 99 1008.3
20260503222603 23 270 3.2 3.2 0.00 0.00 0.00 99 1008.2
20260503222403 23 270 1.6 3.2 0.00 0.00 0.00 99 1008.1
20260503222203 23 270 1.6 3.2 0.00 0.00 0.00 99 1008.4
20260503222003 23 270 0.0 3.2 0.00 0.00 0.00 99 1008.1
20260503221804 23 270 0.0 3.2 0.00 0.00 0.00 99 1008.1
20260503221603 23 270 1.6 3.2 0.00 0.00 0.00 99 1008.4
20260503221403 23 270 0.0 3.2 0.00 0.00 0.00 99 1008.1
20260503221203 23 270 0.0 3.2 0.00 0.00 0.00 99 1008.2
20260503221003 23 270 0.0 3.2 0.00 0.00 0.00 99 1008.2
20260503220803 23 270 0.0 3.2 0.00 0.00 0.00 99 1008.1
20260503220603 23 270 1.6 3.2 0.00 0.00 0.00 99 1008.2
20260503220402 23 270 0.0 3.2 0.00 0.00 0.00 99 1008.2
20260503220204 23 270 0.0 3.2 0.00 0.00 0.00 99 1008.0
20260503220003 23 270 0.0 3.2 0.00 0.00 0.00 99 1008.1
20260503215803 23 270 0.0 3.2 0.00 0.00 0.00 99 1008.1
20260503215603 23 270 0.0 3.2 0.00 0.00 0.00 99 1007.9
20260503215403 23 0 0.0 0.0 0.00 0.00 0.00 99 1008.2
20260503215203 23 0 0.0 0.0 0.00 0.00 0.00 99 1007.9
20260503215003 23 0 0.0 0.0 0.00 0.00 0.00 99 1007.8
20260503214803 23 0 0.0 0.0 0.00 0.00 0.00 99 1008.1
20260503214604 23 0 0.0 0.0 0.00 0.00 0.00 99 1008.0
20260503214403 23 0 0.0 0.0 0.00 0.00 0.00 99 1008.0